| time (UTC) | temp C | wind direction | speed KPH | gust KPH | rain 1hr cm | rain 24hr cm | rain mn cm | humidity % | barometer mb |
| 20260508173956 | 16 | 129 | 6.4 | 22.5 | 0.00 | 0.00 | 0.00 | 26 | 1003.5 |
| 20260508172954 | 16 | 72 | 3.2 | 16.1 | 0.00 | 0.00 | 0.00 | 28 | 1003.6 |
| 20260508171953 | 15 | 162 | 9.7 | 19.3 | 0.00 | 0.00 | 0.00 | 28 | 1003.9 |
| 20260508170951 | 16 | 99 | 8.0 | 14.5 | 0.00 | 0.00 | 0.00 | 28 | 1004.0 |
| 20260508170451 | 16 | 116 | 4.8 | 14.5 | 0.00 | 0.00 | 0.00 | 29 | 1004.0 |
| 20260508165442 | 15 | 95 | 4.8 | 16.1 | 0.00 | 0.00 | 0.00 | 28 | 1004.2 |
| 20260508164943 | 16 | 114 | 0.0 | 16.1 | 0.00 | 0.00 | 0.00 | 27 | 1004.3 |
| 20260508163932 | 17 | 122 | 4.8 | 16.1 | 0.00 | 0.00 | 0.00 | 25 | 1004.0 |
| 20260508163433 | 17 | 122 | 6.4 | 17.7 | 0.00 | 0.00 | 0.00 | 26 | 1004.1 |
| 20260508162432 | 15 | 101 | 0.0 | 14.5 | 0.00 | 0.00 | 0.00 | 30 | 1004.6 |
| 20260508161950 | 16 | 138 | 4.8 | 17.7 | 0.00 | 0.00 | 0.00 | 30 | 1004.6 |
| 20260508161433 | 16 | 94 | 3.2 | 17.7 | 0.00 | 0.00 | 0.00 | 29 | 1004.7 |
| 20260508160925 | 16 | 112 | 9.7 | 16.1 | 0.00 | 0.00 | 0.00 | 29 | 1004.6 |
| 20260508160423 | 16 | 162 | 3.2 | 16.1 | 0.00 | 0.00 | 0.00 | 30 | 1004.7 |
| 20260508155921 | 15 | 104 | 9.7 | 16.1 | 0.00 | 0.00 | 0.00 | 29 | 1004.5 |
| 20260508155422 | 15 | 114 | 6.4 | 16.1 | 0.00 | 0.00 | 0.00 | 28 | 1004.8 |
| 20260508154927 | 16 | 112 | 4.8 | 14.5 | 0.00 | 0.00 | 0.00 | 29 | 1004.7 |
| 20260508154407 | 16 | 90 | 0.0 | 11.3 | 0.00 | 0.00 | 0.00 | 27 | 1004.6 |
| 20260508153905 | 15 | 101 | 4.8 | 11.3 | 0.00 | 0.00 | 0.00 | 29 | 1004.8 |
| 20260508153406 | 15 | 104 | 4.8 | 12.9 | 0.00 | 0.00 | 0.00 | 29 | 1004.8 |
| 20260508152404 | 15 | 101 | 3.2 | 9.7 | 0.00 | 0.00 | 0.00 | 33 | 1005.1 |
| 20260508151903 | 15 | 22 | 0.0 | 19.3 | 0.00 | 0.00 | 0.00 | 33 | 1005.0 |
| 20260508151403 | 13 | 26 | 0.0 | 19.3 | 0.00 | 0.00 | 0.00 | 34 | 1005.0 |
| 20260508150901 | 13 | 102 | 6.4 | 16.1 | 0.00 | 0.00 | 0.00 | 34 | 1005.3 |
| 20260508150401 | 13 | 123 | 3.2 | 16.1 | 0.00 | 0.00 | 0.00 | 35 | 1005.4 |
| 20260508145901 | 13 | 112 | 3.2 | 12.9 | 0.00 | 0.00 | 0.00 | 35 | 1005.4 |
| 20260508145401 | 13 | 78 | 3.2 | 14.5 | 0.00 | 0.00 | 0.00 | 36 | 1005.4 |
| 20260508144400 | 12 | 74 | 1.6 | 9.7 | 0.00 | 0.00 | 0.00 | 38 | 1005.8 |
| 20260508143401 | 11 | 101 | 3.2 | 16.1 | 0.00 | 0.00 | 0.00 | 40 | 1005.7 |
| 20260508142901 | 11 | 90 | 6.4 | 9.7 | 0.00 | 0.00 | 0.00 | 42 | 1005.8 |
| 20260508142401 | 11 | 85 | 3.2 | 9.7 | 0.00 | 0.00 | 0.00 | 44 | 1005.6 |
| 20260508141901 | 10 | 36 | 3.2 | 9.7 | 0.00 | 0.00 | 0.00 | 44 | 1005.8 |
| 20260508141400 | 10 | 97 | 1.6 | 6.4 | 0.00 | 0.00 | 0.00 | 47 | 1005.9 |
| 20260508140902 | 8 | 106 | 3.2 | 11.3 | 0.00 | 0.00 | 0.00 | 48 | 1005.9 |
| 20260508140402 | 8 | 85 | 3.2 | 11.3 | 0.00 | 0.00 | 0.00 | 50 | 1006.1 |
| 20260508135401 | 7 | 79 | 3.2 | 6.4 | 0.00 | 0.00 | 0.00 | 50 | 1006.1 |
| 20260508134900 | 7 | 79 | 3.2 | 6.4 | 0.00 | 0.00 | 0.00 | 50 | 1006.3 |
| 20260508134400 | 7 | 86 | 3.2 | 6.4 | 0.00 | 0.00 | 0.00 | 52 | 1006.3 |
| 20260508133901 | 7 | 77 | 1.6 | 6.4 | 0.00 | 0.00 | 0.00 | 52 | 1006.8 |
| 20260508133401 | 7 | 63 | 1.6 | 6.4 | 0.00 | 0.00 | 0.00 | 53 | 1006.6 |
| 20260508132901 | 7 | 21 | 3.2 | 6.4 | 0.00 | 0.00 | 0.00 | 53 | 1006.6 |
| 20260508132400 | 6 | 73 | 3.2 | 4.8 | 0.00 | 0.00 | 0.00 | 57 | 1006.7 |
| 20260508131902 | 6 | 103 | 0.0 | 4.8 | 0.00 | 0.00 | 0.00 | 57 | 1006.6 |
| 20260508131400 | 6 | 117 | 3.2 | 4.8 | 0.00 | 0.00 | 0.00 | 58 | 1006.5 |
| 20260508130854 | 6 | 74 | 0.0 | 4.8 | 0.00 | 0.00 | 0.00 | 60 | 1006.8 |
| 20260508130356 | 5 | 82 | 1.6 | 6.4 | 0.00 | 0.00 | 0.00 | 60 | 1006.7 |
| 20260508124355 | 3 | 60 | 0.0 | 3.2 | 0.00 | 0.00 | 0.00 | 64 | 1006.6 |
| 20260508123853 | 3 | 90 | 0.0 | 3.2 | 0.00 | 0.00 | 0.00 | 63 | 1006.9 |
| 20260508123356 | 3 | 96 | 1.6 | 3.2 | 0.00 | 0.00 | 0.00 | 62 | 1006.9 |
| 20260508122354 | 2 | 84 | 0.0 | 3.2 | 0.00 | 0.00 | 0.00 | 65 | 1006.7 |
| 20260508121852 | 2 | 337 | 0.0 | 3.2 | 0.00 | 0.00 | 0.00 | 67 | 1006.7 |
| 20260508121353 | 2 | 90 | 0.0 | 3.2 | 0.00 | 0.00 | 0.00 | 66 | 1006.8 |
| 20260508120353 | 1 | 32 | 1.6 | 3.2 | 0.00 | 0.00 | 0.00 | 68 | 1006.6 |
| 20260508115849 | 1 | 66 | 0.0 | 3.2 | 0.00 | 0.00 | 0.00 | 69 | 1006.7 |
| 20260508115343 | 1 | 23 | 0.0 | 3.2 | 0.00 | 0.00 | 0.00 | 70 | 1006.7 |
| 20260508114844 | 1 | 90 | 0.0 | 1.6 | 0.00 | 0.00 | 0.00 | 70 | 1006.9 |
| 20260508113840 | 0 | 40 | 0.0 | 1.6 | 0.00 | 0.00 | 0.00 | 71 | 1006.9 |
| 20260508113342 | 0 | 75 | 0.0 | 3.2 | 0.00 | 0.00 | 0.00 | 72 | 1006.9 |
| 20260508112841 | 0 | 66 | 0.0 | 3.2 | 0.00 | 0.00 | 0.00 | 72 | 1006.9 |
| 20260508111840 | 0 | 66 | 0.0 | 3.2 | 0.00 | 0.00 | 0.00 | 74 | 1006.7 |
| 20260508110340 | 0 | 23 | 0.0 | 3.2 | 0.00 | 0.00 | 0.00 | 74 | 1006.6 |
| 20260508105838 | 0 | 77 | 0.0 | 1.6 | 0.00 | 0.00 | 0.00 | 74 | 1006.8 |
| 20260508105337 | 0 | 82 | 0.0 | 1.6 | 0.00 | 0.00 | 0.00 | 73 | 1006.9 |
| 20260508104839 | 0 | 18 | 0.0 | 1.6 | 0.00 | 0.00 | 0.00 | 73 | 1006.9 |
| 20260508104338 | -1 | 29 | 0.0 | 1.6 | 0.00 | 0.00 | 0.00 | 73 | 1006.8 |
| 20260508103839 | 0 | 29 | 0.0 | 1.6 | 0.00 | 0.00 | 0.00 | 73 | 1006.9 |
| 20260508103338 | -1 | 66 | 0.0 | 1.6 | 0.00 | 0.00 | 0.00 | 73 | 1007.0 |
| 20260508102838 | -1 | 66 | 0.0 | 1.6 | 0.00 | 0.00 | 0.00 | 74 | 1007.2 |
| 20260508102337 | -1 | 90 | 0.0 | 3.2 | 0.00 | 0.00 | 0.00 | 74 | 1007.0 |
| 20260508101343 | -1 | 49 | 0.0 | 1.6 | 0.00 | 0.00 | 0.00 | 74 | 1007.1 |
| 20260508100837 | -1 | 29 | 0.0 | 3.2 | 0.00 | 0.00 | 0.00 | 73 | 1007.0 |
| 20260508100331 | -1 | 7 | 0.0 | 3.2 | 0.00 | 0.00 | 0.00 | 73 | 1007.1 |
| 20260508095331 | -1 | 53 | 0.0 | 3.2 | 0.00 | 0.00 | 0.00 | 75 | 1007.1 |
| 20260508094833 | -1 | 37 | 0.0 | 3.2 | 0.00 | 0.00 | 0.00 | 75 | 1007.1 |
| 20260508093330 | -2 | 32 | 1.6 | 3.2 | 0.00 | 0.00 | 0.00 | 76 | 1007.2 |
| 20260508092829 | -2 | 33 | 0.0 | 3.2 | 0.00 | 0.00 | 0.00 | 76 | 1007.2 |
| 20260508092329 | -2 | 32 | 1.6 | 3.2 | 0.00 | 0.00 | 0.00 | 77 | 1007.3 |
| 20260508091830 | -2 | 82 | 0.0 | 1.6 | 0.00 | 0.00 | 0.00 | 77 | 1007.6 |
| 20260508091330 | -2 | 60 | 0.0 | 3.2 | 0.00 | 0.00 | 0.00 | 77 | 1007.5 |
| 20260508090829 | -2 | 7 | 0.0 | 3.2 | 0.00 | 0.00 | 0.00 | 77 | 1007.5 |
| 20260508090331 | -2 | 36 | 0.0 | 3.2 | 0.00 | 0.00 | 0.00 | 77 | 1007.4 |
| 20260508085829 | -2 | 23 | 1.6 | 3.2 | 0.00 | 0.00 | 0.00 | 77 | 1007.7 |
| 20260508085328 | -2 | 114 | 1.6 | 4.8 | 0.00 | 0.00 | 0.00 | 77 | 1007.6 |
| 20260508084830 | -1 | 18 | 1.6 | 4.8 | 0.00 | 0.00 | 0.00 | 76 | 1007.6 |
| 20260508084328 | -2 | 60 | 0.0 | 3.2 | 0.00 | 0.00 | 0.00 | 77 | 1007.6 |
| 20260508083827 | -2 | 23 | 0.0 | 3.2 | 0.00 | 0.00 | 0.00 | 76 | 1007.6 |
| 20260508082827 | -2 | 120 | 0.0 | 3.2 | 0.00 | 0.00 | 0.00 | 76 | 1007.6 |
| 20260508082326 | -2 | 66 | 0.0 | 3.2 | 0.00 | 0.00 | 0.00 | 76 | 1007.6 |
| 20260508081828 | -1 | 114 | 0.0 | 1.6 | 0.00 | 0.00 | 0.00 | 75 | 1007.9 |
| 20260508081327 | -2 | 71 | 0.0 | 3.2 | 0.00 | 0.00 | 0.00 | 77 | 1007.9 |
| 20260508080332 | -2 | 98 | 0.0 | 1.6 | 0.00 | 0.00 | 0.00 | 78 | 1007.8 |
| 20260508075825 | -1 | 82 | 0.0 | 1.6 | 0.00 | 0.00 | 0.00 | 76 | 1007.7 |
| 20260508075327 | -1 | 75 | 0.0 | 1.6 | 0.00 | 0.00 | 0.00 | 75 | 1007.8 |
| 20260508074826 | -1 | 90 | 0.0 | 3.2 | 0.00 | 0.00 | 0.00 | 75 | 1007.6 |
| 20260508074327 | -1 | 75 | 0.0 | 3.2 | 0.00 | 0.00 | 0.00 | 76 | 1007.6 |
| 20260508073827 | -2 | 90 | 0.0 | 1.6 | 0.00 | 0.00 | 0.00 | 79 | 1007.8 |
| 20260508073325 | -2 | 120 | 0.0 | 3.2 | 0.00 | 0.00 | 0.00 | 78 | 1007.7 |
| 20260508072325 | -2 | 60 | 1.6 | 3.2 | 0.00 | 0.00 | 0.00 | 79 | 1007.8 |
| 20260508071827 | -2 | 75 | 0.0 | 1.6 | 0.00 | 0.00 | 0.00 | 79 | 1007.9 |
| 20260508071325 | -2 | 82 | 0.0 | 1.6 | 0.00 | 0.00 | 0.00 | 78 | 1007.9 |
| 20260508070826 | -2 | 69 | 0.0 | 1.6 | 0.00 | 0.00 | 0.00 | 76 | 1007.7 |
| 20260508065825 | -2 | 66 | 0.0 | 1.6 | 0.00 | 0.00 | 0.00 | 76 | 1008.0 |
| 20260508065325 | -2 | 60 | 0.0 | 3.2 | 0.00 | 0.00 | 0.00 | 75 | 1008.1 |
| 20260508064824 | -1 | 84 | 1.6 | 3.2 | 0.00 | 0.00 | 0.00 | 75 | 1007.8 |
| 20260508064324 | -1 | 78 | 0.0 | 3.2 | 0.00 | 0.00 | 0.00 | 74 | 1008.4 |
| 20260508063816 | -1 | 66 | 1.6 | 3.2 | 0.00 | 0.00 | 0.00 | 75 | 1008.0 |
| 20260508063315 | -1 | 75 | 0.0 | 3.2 | 0.00 | 0.00 | 0.00 | 75 | 1008.1 |
| 20260508062814 | -1 | 54 | 0.0 | 3.2 | 0.00 | 0.00 | 0.00 | 75 | 1008.1 |
| 20260508062316 | -1 | 60 | 0.0 | 3.2 | 0.00 | 0.00 | 0.00 | 75 | 1008.2 |
| 20260508061814 | -1 | 57 | 1.6 | 3.2 | 0.00 | 0.00 | 0.00 | 72 | 1008.3 |
| 20260508061314 | -1 | 75 | 1.6 | 3.2 | 0.00 | 0.00 | 0.00 | 71 | 1008.3 |
| 20260508060814 | -1 | 90 | 1.6 | 3.2 | 0.00 | 0.00 | 0.00 | 72 | 1008.2 |
| 20260508055805 | -1 | 26 | 0.0 | 3.2 | 0.00 | 0.00 | 0.00 | 72 | 1008.3 |
| 20260508055306 | -1 | 20 | 1.6 | 3.2 | 0.00 | 0.00 | 0.00 | 72 | 1008.1 |
| 20260508054804 | -1 | 66 | 1.6 | 3.2 | 0.00 | 0.00 | 0.00 | 73 | 1008.2 |
| 20260508054301 | -1 | 26 | 1.6 | 3.2 | 0.00 | 0.00 | 0.00 | 72 | 1008.5 |
| 20260508053801 | -1 | 66 | 0.0 | 3.2 | 0.00 | 0.00 | 0.00 | 75 | 1008.3 |
| 20260508053300 | -1 | 57 | 1.6 | 3.2 | 0.00 | 0.00 | 0.00 | 72 | 1008.8 |
| 20260508052802 | -1 | 36 | 3.2 | 3.2 | 0.00 | 0.00 | 0.00 | 73 | 1008.5 |
| 20260508052301 | -1 | 26 | 0.0 | 3.2 | 0.00 | 0.00 | 0.00 | 77 | 1008.5 |
| 20260508051301 | -1 | 18 | 1.6 | 3.2 | 0.00 | 0.00 | 0.00 | 72 | 1008.5 |
| 20260508050802 | -1 | 69 | 0.0 | 3.2 | 0.00 | 0.00 | 0.00 | 71 | 1009.1 |
| 20260508050300 | -1 | 80 | 3.2 | 3.2 | 0.00 | 0.00 | 0.00 | 69 | 1008.9 |
| 20260508045803 | -1 | 26 | 1.6 | 1.6 | 0.00 | 0.00 | 0.00 | 70 | 1008.6 |
| 20260508045301 | -1 | 23 | 0.0 | 0.0 | 0.00 | 0.00 | 0.00 | 71 | 1008.9 |
| 20260508044801 | -1 | 23 | 0.0 | 0.0 | 0.00 | 0.00 | 0.00 | 70 | 1009.1 |
| 20260508044300 | -1 | 23 | 0.0 | 0.0 | 0.00 | 0.00 | 0.00 | 69 | 1009.0 |
| 20260508042801 | 0 | 23 | 0.0 | 0.0 | 0.00 | 0.00 | 0.00 | 66 | 1008.9 |
| 20260508042306 | 0 | 23 | 0.0 | 0.0 | 0.00 | 0.00 | 0.00 | 65 | 1009.2 |
| 20260508041801 | 0 | 23 | 0.0 | 1.6 | 0.00 | 0.00 | 0.00 | 64 | 1009.3 |
| 20260508040801 | 0 | 60 | 0.0 | 1.6 | 0.00 | 0.00 | 0.00 | 68 | 1009.4 |
| 20260508040300 | 0 | 66 | 0.0 | 1.6 | 0.00 | 0.00 | 0.00 | 68 | 1009.2 |
| 20260508035805 | 0 | 66 | 0.0 | 0.0 | 0.00 | 0.00 | 0.00 | 68 | 1009.1 |
| 20260508035307 | 0 | 66 | 0.0 | 0.0 | 0.00 | 0.00 | 0.00 | 67 | 1009.2 |
| 20260508034803 | 0 | 66 | 0.0 | 0.0 | 0.00 | 0.00 | 0.00 | 67 | 1009.2 |
| 20260508034303 | 0 | 66 | 0.0 | 1.6 | 0.00 | 0.00 | 0.00 | 65 | 1009.4 |
| 20260508033803 | 0 | 66 | 0.0 | 1.6 | 0.00 | 0.00 | 0.00 | 63 | 1009.3 |
| 20260508033301 | 0 | 66 | 1.6 | 1.6 | 0.00 | 0.00 | 0.00 | 65 | 1009.3 |
| 20260508032803 | 1 | 23 | 0.0 | 1.6 | 0.00 | 0.00 | 0.00 | 64 | 1009.3 |
| 20260508031758 | 1 | 74 | 0.0 | 1.6 | 0.00 | 0.00 | 0.00 | 61 | 1009.4 |
| 20260508031259 | 1 | 90 | 0.0 | 1.6 | 0.00 | 0.00 | 0.00 | 61 | 1009.5 |
| 20260508030759 | 1 | 74 | 0.0 | 1.6 | 0.00 | 0.00 | 0.00 | 60 | 1009.3 |
| 20260508025756 | 1 | 74 | 0.0 | 1.6 | 0.00 | 0.00 | 0.00 | 60 | 1009.2 |
| 20260508024750 | 1 | 0 | 0.0 | 0.0 | 0.00 | 0.00 | 0.00 | 58 | 1009.2 |
| 20260508024250 | 2 | 0 | 0.0 | 0.0 | 0.00 | 0.00 | 0.00 | 58 | 1009.2 |
| 20260508023749 | 2 | 0 | 0.0 | 0.0 | 0.00 | 0.00 | 0.00 | 56 | 1009.3 |
| 20260508023249 | 2 | 0 | 0.0 | 0.0 | 0.00 | 0.00 | 0.00 | 55 | 1009.3 |
| 20260508022750 | 3 | 0 | 0.0 | 0.0 | 0.00 | 0.00 | 0.00 | 54 | 1009.3 |
| 20260508022239 | 3 | 0 | 0.0 | 1.6 | 0.00 | 0.00 | 0.00 | 53 | 1009.2 |
| 20260508021738 | 4 | 0 | 0.0 | 1.6 | 0.00 | 0.00 | 0.00 | 51 | 1009.5 |
| 20260508021238 | 4 | 354 | 0.0 | 1.6 | 0.00 | 0.00 | 0.00 | 51 | 1009.2 |
| 20260508020739 | 4 | 7 | 0.0 | 1.6 | 0.00 | 0.00 | 0.00 | 51 | 1009.2 |
| 20260508015737 | 5 | 165 | 0.0 | 0.0 | 0.00 | 0.00 | 0.00 | 49 | 1009.1 |
| 20260508015239 | 5 | 165 | 0.0 | 0.0 | 0.00 | 0.00 | 0.00 | 49 | 1008.8 |
| 20260508014738 | 5 | 165 | 0.0 | 0.0 | 0.00 | 0.00 | 0.00 | 47 | 1009.0 |
| 20260508014239 | 6 | 165 | 0.0 | 0.0 | 0.00 | 0.00 | 0.00 | 45 | 1008.9 |
| 20260508013737 | 6 | 165 | 0.0 | 0.0 | 0.00 | 0.00 | 0.00 | 44 | 1008.9 |
| 20260508012729 | 7 | 165 | 0.0 | 0.0 | 0.00 | 0.00 | 0.00 | 42 | 1008.8 |
| 20260508012229 | 7 | 165 | 0.0 | 0.0 | 0.00 | 0.00 | 0.00 | 41 | 1008.9 |
| 20260508011229 | 8 | 165 | 0.0 | 4.8 | 0.00 | 0.00 | 0.00 | 38 | 1008.8 |
| 20260508010729 | 8 | 151 | 0.0 | 4.8 | 0.00 | 0.00 | 0.00 | 39 | 1008.8 |
| 20260508010231 | 8 | 157 | 0.0 | 3.2 | 0.00 | 0.00 | 0.00 | 37 | 1008.8 |
| 20260508005730 | 9 | 106 | 0.0 | 3.2 | 0.00 | 0.00 | 0.00 | 37 | 1008.8 |
| 20260508004729 | 10 | 254 | 0.0 | 6.4 | 0.00 | 0.00 | 0.00 | 34 | 1008.6 |
| 20260508004230 | 11 | 180 | 0.0 | 6.4 | 0.00 | 0.00 | 0.00 | 33 | 1008.6 |
| 20260508003733 | 11 | 119 | 3.2 | 11.3 | 0.00 | 0.00 | 0.00 | 33 | 1008.5 |
| 20260508003228 | 10 | 180 | 1.6 | 11.3 | 0.00 | 0.00 | 0.00 | 34 | 1008.9 |
| 20260508002731 | 10 | 54 | 8.0 | 9.7 | 0.00 | 0.00 | 0.00 | 33 | 1008.6 |
| 20260508002229 | 10 | 132 | 3.2 | 9.7 | 0.00 | 0.00 | 0.00 | 32 | 1008.3 |
| 20260508001729 | 11 | 78 | 3.2 | 9.7 | 0.00 | 0.00 | 0.00 | 33 | 1008.5 |
| 20260508001230 | 11 | 123 | 1.6 | 9.7 | 0.00 | 0.00 | 0.00 | 32 | 1008.9 |
| 20260508000729 | 11 | 78 | 1.6 | 9.7 | 0.00 | 0.00 | 0.00 | 32 | 1008.6 |
| 20260507235229 | 11 | 186 | 1.6 | 9.7 | 0.00 | 0.00 | 0.00 | 33 | 1008.8 |
| 20260507234729 | 11 | 87 | 4.8 | 9.7 | 0.00 | 0.00 | 0.00 | 31 | 1008.6 |
| 20260507234229 | 12 | 172 | 4.8 | 12.9 | 0.00 | 0.00 | 0.00 | 32 | 1008.8 |
| 20260507233731 | 11 | 143 | 3.2 | 12.9 | 0.00 | 0.00 | 0.00 | 31 | 1008.6 |
| 20260507232229 | 12 | 171 | 4.8 | 16.1 | 0.00 | 0.00 | 0.00 | 29 | 1008.8 |
| 20260507231729 | 12 | 161 | 6.4 | 16.1 | 0.00 | 0.00 | 0.00 | 31 | 1008.8 |
| 20260507231231 | 12 | 5 | 0.0 | 11.3 | 0.00 | 0.00 | 0.00 | 32 | 1008.8 |
| 20260507230729 | 13 | 180 | 8.0 | 11.3 | 0.00 | 0.00 | 0.00 | 30 | 1008.6 |
| 20260507230229 | 12 | 113 | 4.8 | 20.9 | 0.00 | 0.00 | 0.00 | 31 | 1008.8 |
| 20260507225730 | 12 | 94 | 3.2 | 20.9 | 0.00 | 0.00 | 0.00 | 30 | 1008.9 |
| 20260507224731 | 12 | 90 | 1.6 | 16.1 | 0.00 | 0.00 | 0.00 | 30 | 1008.8 |
| 20260507223729 | 12 | 93 | 6.4 | 9.7 | 0.00 | 0.00 | 0.00 | 30 | 1008.9 |
| 20260507223231 | 12 | 111 | 4.8 | 9.7 | 0.00 | 0.00 | 0.00 | 31 | 1008.8 |
| 20260507222730 | 12 | 209 | 6.4 | 9.7 | 0.00 | 0.00 | 0.00 | 31 | 1009.1 |
| 20260507222232 | 11 | 90 | 0.0 | 9.7 | 0.00 | 0.00 | 0.00 | 34 | 1008.9 |
| 20260507221729 | 10 | 90 | 0.0 | 11.3 | 0.00 | 0.00 | 0.00 | 35 | 1009.1 |
| 20260507221229 | 11 | 143 | 3.2 | 11.3 | 0.00 | 0.00 | 0.00 | 35 | 1009.1 |
| 20260507220730 | 12 | 135 | 4.8 | 12.9 | 0.00 | 0.00 | 0.00 | 33 | 1008.9 |
| 20260507220229 | 11 | 306 | 1.6 | 12.9 | 0.00 | 0.00 | 0.00 | 34 | 1008.9 |
| 20260507215729 | 11 | 225 | 0.0 | 8.0 | 0.00 | 0.00 | 0.00 | 34 | 1008.8 |
| 20260507214229 | 12 | 283 | 3.2 | 9.7 | 0.00 | 0.00 | 0.00 | 33 | 1009.1 |
| 20260507213725 | 13 | 99 | 6.4 | 11.3 | 0.00 | 0.00 | 0.00 | 34 | 1009.1 |
| 20260507213227 | 12 | 206 | 8.0 | 12.9 | 0.00 | 0.00 | 0.00 | 34 | 1009.0 |
| 20260507212725 | 12 | 90 | 4.8 | 12.9 | 0.00 | 0.00 | 0.00 | 35 | 1009.2 |
| 20260507212225 | 12 | 236 | 3.2 | 8.0 | 0.00 | 0.00 | 0.00 | 35 | 1009.3 |
| 20260507211723 | 12 | 132 | 3.2 | 11.3 | 0.00 | 0.00 | 0.00 | 36 | 1009.1 |
| 20260507211224 | 11 | 206 | 3.2 | 11.3 | 0.00 | 0.00 | 0.00 | 37 | 1009.4 |
| 20260507210721 | 10 | 200 | 1.6 | 8.0 | 0.00 | 0.00 | 0.00 | 36 | 1009.4 |
| 20260507210209 | 12 | 164 | 8.0 | 11.3 | 0.00 | 0.00 | 0.00 | 35 | 1009.5 |
| 20260507205712 | 11 | 180 | 3.2 | 11.3 | 0.00 | 0.00 | 0.00 | 36 | 1009.3 |
| 20260507205206 | 11 | 141 | 6.4 | 11.3 | 0.00 | 0.00 | 0.00 | 37 | 1009.3 |
| 20260507204702 | 11 | 190 | 3.2 | 14.5 | 0.00 | 0.00 | 0.00 | 35 | 1009.4 |
| 20260507204203 | 11 | 95 | 3.2 | 14.5 | 0.00 | 0.00 | 0.00 | 37 | 1009.2 |
| 20260507203702 | 11 | 173 | 1.6 | 11.3 | 0.00 | 0.00 | 0.00 | 36 | 1009.4 |
| 20260507203205 | 10 | 147 | 4.8 | 11.3 | 0.00 | 0.00 | 0.00 | 39 | 1009.5 |
| 20260507202703 | 10 | 139 | 3.2 | 12.9 | 0.00 | 0.00 | 0.00 | 39 | 1009.5 |
| 20260507202202 | 10 | 165 | 3.2 | 12.9 | 0.00 | 0.00 | 0.00 | 37 | 1009.6 |
| 20260507201703 | 12 | 169 | 1.6 | 9.7 | 0.00 | 0.00 | 0.00 | 35 | 1009.7 |
| 20260507201204 | 11 | 152 | 6.4 | 11.3 | 0.00 | 0.00 | 0.00 | 37 | 1009.5 |
| 20260507200702 | 10 | 180 | 4.8 | 11.3 | 0.00 | 0.00 | 0.00 | 37 | 1009.8 |
| 20260507200204 | 12 | 341 | 3.2 | 17.7 | 0.00 | 0.00 | 0.00 | 37 | 1009.7 |
| 20260507195702 | 11 | 69 | 4.8 | 17.7 | 0.00 | 0.00 | 0.00 | 38 | 1009.5 |
| 20260507195203 | 12 | 109 | 1.6 | 12.9 | 0.00 | 0.00 | 0.00 | 39 | 1009.8 |
| 20260507194701 | 12 | 90 | 4.8 | 12.9 | 0.00 | 0.00 | 0.00 | 38 | 1009.8 |
| 20260507194201 | 11 | 110 | 4.8 | 16.1 | 0.00 | 0.00 | 0.00 | 39 | 1010.0 |
| 20260507193201 | 10 | 71 | 8.0 | 17.7 | 0.00 | 0.00 | 0.00 | 41 | 1009.9 |
| 20260507192701 | 9 | 203 | 1.6 | 14.5 | 0.00 | 0.00 | 0.00 | 40 | 1009.8 |
| 20260507192201 | 10 | 125 | 9.7 | 14.5 | 0.00 | 0.00 | 0.00 | 38 | 1009.6 |
| 20260507191701 | 10 | 117 | 3.2 | 14.5 | 0.00 | 0.00 | 0.00 | 38 | 1009.8 |
| 20260507191201 | 11 | 164 | 6.4 | 14.5 | 0.00 | 0.00 | 0.00 | 37 | 1009.8 |
| 20260507190702 | 11 | 194 | 3.2 | 14.5 | 0.00 | 0.00 | 0.00 | 36 | 1009.8 |
| 20260507190203 | 11 | 171 | 4.8 | 16.1 | 0.00 | 0.00 | 0.00 | 36 | 1009.8 |
| 20260507185701 | 11 | 101 | 3.2 | 16.1 | 0.00 | 0.00 | 0.00 | 38 | 1009.9 |
| 20260507185200 | 12 | 159 | 3.2 | 12.9 | 0.00 | 0.00 | 0.00 | 36 | 1010.0 |
| 20260507184702 | 11 | 67 | 6.4 | 25.7 | 0.00 | 0.00 | 0.00 | 37 | 1009.9 |
| 20260507184202 | 9 | 134 | 9.7 | 25.7 | 0.00 | 0.00 | 0.00 | 40 | 1010.2 |
| 20260507183702 | 10 | 148 | 4.8 | 16.1 | 0.00 | 0.00 | 0.00 | 39 | 1010.0 |
| 20260507183204 | 11 | 148 | 4.8 | 16.1 | 0.00 | 0.00 | 0.00 | 41 | 1010.0 |
| 20260507182702 | 10 | 154 | 6.4 | 16.1 | 0.00 | 0.00 | 0.00 | 41 | 1010.0 |
| 20260507182204 | 9 | 127 | 4.8 | 14.5 | 0.00 | 0.00 | 0.00 | 41 | 1010.0 |
| 20260507181703 | 10 | 154 | 3.2 | 14.5 | 0.00 | 0.00 | 0.00 | 42 | 1010.0 |
| 20260507180702 | 9 | 109 | 1.6 | 11.3 | 0.00 | 0.00 | 0.00 | 43 | 1010.5 |
| 20260507180204 | 9 | 196 | 6.4 | 11.3 | 0.00 | 0.00 | 0.00 | 42 | 1010.5 |
| 20260507175702 | 9 | 151 | 1.6 | 11.3 | 0.00 | 0.00 | 0.00 | 43 | 1010.3 |
| 20260507175202 | 8 | 104 | 11.3 | 19.3 | 0.00 | 0.00 | 0.00 | 42 | 1010.2 |